Belmar-Farmingdale, NJ

12:01 AM EDT on April 26, 2018 (GMT -0400)
Allaire

Weather History for KBLM - November, 2014

Change the Weather History Date:

Saturday, November 15, 2014

  Actual Average Record
Temperature  
Mean Temperature 34 °F -  
Max Temperature 41 °F 51 °F 69 °F (2005)
Min Temperature 28 °F 36 °F 23 °F (1996)
Degree Days  
Heating Degree Days 30    
Moisture  
Dew Point 17 °F    
Average Humidity 51    
Maximum Humidity 64    
Minimum Humidity 36    
Precipitation  
Precipitation 0.00 in - - ()
Sea Level Pressure  
Sea Level Pressure 30.31 in    
Wind  
Wind Speed 7 mph (WNW)    
Max Wind Speed 16 mph    
Max Gust Speed 22 mph    
Visibility 10 miles    
Events      
Averages and records for this station are not official NWS values.
T = Trace of Precipitation, MM = Missing Value Source: NWS Daily Summary

Daily Weather History Graph

Daily Weather History Graph

Search for Another Location

Airport or City:

Astronomy

Nov. 15, 2014 Rise Set
Actual Time 6:42 AM EST 4:39 PM EST
Civil Twilight 6:12 AM EST 5:08 PM EST
Nautical Twilight 5:40 AM EST 5:41 PM EST
Astronomical Twilight 5:07 AM EST 6:13 PM EST
Moon No Moon Rise 1:02 PM EST (11/15)
Length of Visible Light 10h 55m
Length of Day
9h 57m
Last Quarter, 40% of the Moon is Illuminated
Nov 15
Last Quarter
Nov 22
New
Nov 29
First Quarter
Dec 6
Full
Dec 14
Last Quarter

Hourly Weather History & Observations

Time (EST) Temp. Windchill Dew Point Humidity Pressure Visibility Wind Dir Wind Speed Gust Speed Precip Events Conditions
12:15 AM 28.4 °F 21.2 °F 15.8 °F 59% 30.20 in 10.0 mi West 6.9 mph - N/A   Clear
12:35 AM 28.4 °F 23.3 °F 15.8 °F 59% 30.20 in 10.0 mi West 4.6 mph - N/A   Clear
12:55 AM 30.2 °F 25.4 °F 15.8 °F 55% 30.20 in 10.0 mi West 4.6 mph - N/A   Clear
1:15 AM 28.4 °F 21.2 °F 15.8 °F 59% 30.21 in 10.0 mi West 6.9 mph - N/A   Clear
1:35 AM 28.4 °F 22.2 °F 15.8 °F 59% 30.21 in 10.0 mi West 5.8 mph - N/A   Clear
1:55 AM 30.2 °F 24.3 °F 15.8 °F 55% 30.22 in 10.0 mi West 5.8 mph - N/A   Clear
2:15 AM 28.4 °F 21.2 °F 15.8 °F 59% 30.22 in 10.0 mi West 6.9 mph - N/A   Clear
2:35 AM 28.4 °F 22.2 °F 17.6 °F 64% 30.23 in 10.0 mi West 5.8 mph - N/A   Clear
2:55 AM 28.4 °F 21.2 °F 17.6 °F 64% 30.23 in 10.0 mi West 6.9 mph - N/A   Clear
3:15 AM 30.2 °F 23.4 °F 17.6 °F 60% 30.24 in 10.0 mi West 6.9 mph - N/A   Clear
3:35 AM 30.2 °F 22.6 °F 17.6 °F 60% 30.24 in 10.0 mi West 8.1 mph - N/A   Clear
3:55 AM 30.2 °F 23.4 °F 17.6 °F 60% 30.25 in 10.0 mi WNW 6.9 mph - N/A   Clear
4:15 AM 30.2 °F 22.6 °F 17.6 °F 60% 30.25 in 10.0 mi West 8.1 mph - N/A   Clear
4:35 AM 30.2 °F 23.4 °F 17.6 °F 60% 30.25 in 10.0 mi West 6.9 mph - N/A   Clear
4:55 AM 30.2 °F 23.4 °F 17.6 °F 60% 30.26 in 10.0 mi West 6.9 mph - N/A   Clear
5:15 AM 30.2 °F 25.4 °F 17.6 °F 60% 30.27 in 10.0 mi West 4.6 mph - N/A   Clear
5:35 AM 28.4 °F 22.2 °F 17.6 °F 64% 30.27 in 10.0 mi West 5.8 mph - N/A   Clear
5:55 AM 28.4 °F 22.2 °F 17.6 °F 64% 30.27 in 10.0 mi West 5.8 mph - N/A   Clear
6:15 AM 28.4 °F 22.2 °F 17.6 °F 64% 30.28 in 10.0 mi WNW 5.8 mph - N/A   Clear
6:35 AM 28.4 °F 22.2 °F 17.6 °F 64% 30.29 in 10.0 mi West 5.8 mph - N/A   Clear
6:55 AM 28.4 °F 22.2 °F 17.6 °F 64% 30.30 in 10.0 mi West 5.8 mph - N/A   Clear
7:15 AM 28.4 °F 22.2 °F 17.6 °F 64% 30.30 in 10.0 mi West 5.8 mph - N/A   Clear
7:35 AM 30.2 °F 23.4 °F 17.6 °F 60% 30.31 in 10.0 mi West 6.9 mph - N/A   Clear
7:55 AM 32.0 °F 25.6 °F 19.4 °F 60% 30.32 in 10.0 mi WNW 6.9 mph - N/A   Clear
8:15 AM 33.8 °F 28.6 °F 19.4 °F 56% 30.32 in 10.0 mi WNW 5.8 mph - N/A   Clear
8:35 AM 35.6 °F 29.2 °F 19.4 °F 52% 30.33 in 10.0 mi WNW 8.1 mph - N/A   Clear
8:55 AM 35.6 °F 28.0 °F 19.4 °F 52% 30.33 in 10.0 mi NW 10.4 mph - N/A   Clear
9:15 AM 35.6 °F 25.9 °F 19.4 °F 52% 30.34 in 10.0 mi NW 16.1 mph - N/A   Clear
9:35 AM 37.4 °F 29.3 °F 19.4 °F 48% 30.34 in 10.0 mi NW 12.7 mph 16.1 mph N/A   Clear
9:55 AM 37.4 °F 28.9 °F 17.6 °F 45% 30.35 in 10.0 mi WNW 13.8 mph 20.7 mph N/A   Clear
10:15 AM 37.4 °F 28.5 °F 17.6 °F 45% 30.35 in 10.0 mi WNW 15.0 mph 20.7 mph N/A   Clear
10:35 AM 39.2 °F 30.5 °F 17.6 °F 42% 30.35 in 10.0 mi NW 16.1 mph 21.9 mph N/A   Clear
10:55 AM 39.2 °F 31.2 °F 17.6 °F 42% 30.34 in 10.0 mi NNW 13.8 mph 19.6 mph N/A   Scattered Clouds
11:15 AM 39.2 °F 30.8 °F 17.6 °F 42% 30.33 in 10.0 mi NW 15.0 mph - N/A   Partly Cloudy
11:35 AM 39.2 °F 31.6 °F 17.6 °F 42% 30.33 in 10.0 mi NW 12.7 mph 18.4 mph N/A   Clear
11:55 AM 39.2 °F 31.6 °F 17.6 °F 42% 30.33 in 10.0 mi NW 12.7 mph - N/A   Clear
12:15 PM 41.0 °F 33.1 °F 17.6 °F 39% 30.32 in 10.0 mi WNW 15.0 mph 19.6 mph N/A   Clear
12:35 PM 39.2 °F 31.2 °F 17.6 °F 42% 30.32 in 10.0 mi NW 13.8 mph - N/A   Clear
12:55 PM 41.0 °F 35.2 °F 17.6 °F 39% 30.31 in 10.0 mi WNW 9.2 mph 18.4 mph N/A   Clear
1:15 PM 41.0 °F 33.5 °F 17.6 °F 39% 30.31 in 10.0 mi WNW 13.8 mph - N/A   Clear
1:35 PM 41.0 °F 34.3 °F 17.6 °F 39% 30.31 in 10.0 mi West 11.5 mph 18.4 mph N/A   Clear
1:55 PM 41.0 °F 33.1 °F 17.6 °F 39% 30.31 in 10.0 mi NW 15.0 mph 19.6 mph N/A   Clear
2:15 PM 41.0 °F 32.8 °F 17.6 °F 39% 30.30 in 10.0 mi NW 16.1 mph - N/A   Clear
2:35 PM 41.0 °F 34.3 °F 15.8 °F 36% 30.30 in 10.0 mi NW 11.5 mph - N/A   Clear
2:55 PM 41.0 °F 34.3 °F 15.8 °F 36% 30.30 in 10.0 mi WNW 11.5 mph 16.1 mph N/A   Clear
3:15 PM 41.0 °F 33.9 °F 15.8 °F 36% 30.30 in 10.0 mi NW 12.7 mph - N/A   Clear
3:35 PM 41.0 °F 35.2 °F 15.8 °F 36% 30.31 in 10.0 mi WNW 9.2 mph - N/A   Clear
3:55 PM 39.2 °F 33.0 °F 15.8 °F 39% 30.31 in 10.0 mi NW 9.2 mph - N/A   Clear
4:15 PM 39.2 °F 35.0 °F 15.8 °F 39% 30.31 in 10.0 mi NW 5.8 mph - N/A   Clear
4:35 PM 39.2 °F 34.2 °F 14.0 °F 36% 30.32 in 10.0 mi WNW 6.9 mph - N/A   Clear
4:55 PM 37.4 °F 34.9 °F 14.0 °F 38% 30.33 in 10.0 mi WNW 3.5 mph - N/A   Clear
5:15 PM 37.4 °F 33.8 °F 14.0 °F 38% 30.34 in 10.0 mi West 4.6 mph - N/A   Clear
5:35 PM 37.4 °F 33.8 °F 14.0 °F 38% 30.35 in 10.0 mi West 4.6 mph - N/A   Clear
5:55 PM 37.4 °F 33.8 °F 14.0 °F 38% 30.35 in 10.0 mi West 4.6 mph - N/A   Clear
6:15 PM 35.6 °F 31.7 °F 15.8 °F 44% 30.36 in 10.0 mi West 4.6 mph - N/A   Clear
6:35 PM 35.6 °F 32.8 °F 14.0 °F 41% 30.36 in 10.0 mi West 3.5 mph - N/A   Clear
6:55 PM 32.0 °F - 17.6 °F 55% 30.36 in 10.0 mi Calm Calm - N/A   Clear
7:35 PM 32.0 °F - 15.8 °F 51% 30.36 in 10.0 mi Calm Calm - N/A   Clear
7:55 PM 32.0 °F - 15.8 °F 51% 30.36 in 10.0 mi Calm Calm - N/A   Clear
8:15 PM 30.2 °F 26.7 °F 15.8 °F 55% 30.36 in 10.0 mi West 3.5 mph - N/A   Clear
8:35 PM 30.2 °F - 14.0 °F 51% 30.36 in 10.0 mi Calm Calm - N/A   Clear
8:55 PM 30.2 °F - 15.8 °F 55% 30.36 in 10.0 mi Calm Calm - N/A   Clear
9:15 PM 30.2 °F 26.7 °F 15.8 °F 55% 30.36 in 10.0 mi West 3.5 mph - N/A   Clear
9:35 PM 30.2 °F - 15.8 °F 55% 30.36 in 10.0 mi Calm Calm - N/A   Clear
9:55 PM 30.2 °F 25.4 °F 17.6 °F 60% 30.37 in 10.0 mi WSW 4.6 mph - N/A   Clear
10:15 PM 32.0 °F 27.5 °F 15.8 °F 51% 30.36 in 10.0 mi SW 4.6 mph - N/A   Clear
10:35 PM 30.2 °F 25.4 °F 15.8 °F 55% 30.36 in 10.0 mi WSW 4.6 mph - N/A   Clear
10:55 PM 30.2 °F 25.4 °F 15.8 °F 55% 30.36 in 10.0 mi WSW 4.6 mph - N/A   Clear
11:15 PM 28.4 °F 23.3 °F 15.8 °F 59% 30.36 in 10.0 mi West 4.6 mph - N/A   Clear
11:35 PM 30.2 °F - 15.8 °F 55% 30.35 in 10.0 mi Calm Calm - N/A   Clear
11:55 PM 28.4 °F 24.6 °F 15.8 °F 59% 30.35 in 10.0 mi West 3.5 mph - N/A   Clear